This demonstration page uses our WeatherBlox Daily Observations layout. Learn more.

Left ArrowRight Arrow

Hourly Observations for January 27, 2016

Temp ( °F °C ) Dew Point ( °F °C ) Humidity (%) Winds ( mph kmh ) Pressure ( in mb ) Visibility ( mi km ) Precip ( " mm )
12:40 am 00:40 Cloudy with Light Rain 48 9 46 8 94 94 WNW 5 7 30.12 1020 2 3 0.00 0.00
12:53 am 00:53 Cloudy with Light Rain 49 9.4 47 8.3 93 93 Calm 30.10 1019 2 2 0.01 0.25
1:14 am 01:14 Cloudy with Light Rain 50 10 48 9 94 94 Calm 30.12 1020 3 5 0.00 0.00
1:30 am 01:30 Cloudy with Light Rain 50 10 48 9 94 94 Calm 30.12 1020 2 2 0.00 0.00
1:35 am 01:35 Cloudy with Light Rain 49 9.4 47 8.3 93 93 Calm 30.12 1020 1 1 0.01 0.25
1:53 am 01:53 Cloudy with Light Rain 49 9.4 47 8.3 93 93 Calm 30.09 1019 1 2 0.02 0.51
2:04 am 02:04 Cloudy with Light Rain 50 10 48 9 94 94 Calm 30.12 1020 3 5 0.00 0.00
2:31 am 02:31 Cloudy with Light Rain 49 9.4 48 8.9 97 97 Calm 30.12 1020 2 3 0.01 0.25
2:43 am 02:43 Cloudy with Light Rain 48 8.9 47 8.3 96 96 Calm 30.12 1020 1 1 0.01 0.25
2:51 am 02:51 Cloudy with Light Rain 48 9 46 8 94 94 Calm 30.12 1020 1 1 0.02 0.51
2:53 am 02:53 Cloudy with Light Rain 48 8.9 47 8.3 96 96 Calm 30.09 1019 1 1 0.02 0.51
3:06 am 03:06 Cloudy with Light Rain 48 9 48 9 100 100 Calm 30.12 1020 1 2 0.00 0.00
3:36 am 03:36 Cloudy with Light Rain 49 9.4 48 8.9 97 97 Calm 30.12 1020 3 5 0.00 0.03
3:51 am 03:51 Cloudy with Light Rain 48 9 46 8 94 94 Calm 30.12 1020 2 3 0.00 0.03
3:53 am 03:53 Cloudy with Light Rain 49 9.4 48 8.9 97 97 Calm 30.08 1019 2 3 0.00 0.03
4:00 am 04:00 Cloudy with Light Rain 48 9 48 9 100 100 Calm 30.09 1019 3 5 0.00 0.00
4:15 am 04:15 Cloudy with Light Rain 49 9.4 48 8.9 97 97 Calm 30.12 1020 6 10 0.01 0.25
4:25 am 04:25 Cloudy with Mist and Fog 49 9.4 48 8.9 97 97 Calm 30.12 1020 6 10 0.01 0.25
4:46 am 04:46 Cloudy with Mist and Fog 48 9 48 9 100 100 Calm 30.12 1020 3 4 0.00 0.00
4:53 am 04:53 Cloudy with Mist and Fog 49 9.4 47 8.3 93 93 NW 9 15 30.08 1019 3 5 0.01 0.25
5:53 am 05:53 Cloudy 46 7.8 42 5.6 86 86 NNW 8 13 30.12 1020 10 16 0.00 0.00
6:53 am 06:53 Cloudy 44 6.7 41 5 89 89 NNW 5 7 30.12 1020 10 16 0.00 0.03
7:53 am 07:53 Cloudy 43 6.1 39 3.9 86 86 NNW 3 6 30.12 1020 10 16 0.00 0.00
8:53 am 08:53 Cloudy 41 5 38 3.3 89 89 NNW 9 15 30.13 1020 8 13 0.00 0.00
9:53 am 09:53 Cloudy 41 5 37 2.8 86 86 NW 12 19 30.15 1021 7 11 0.00 0.00
10:53 am 10:53 Cloudy 40 4.4 36 2.2 86 86 N 9 15 30.15 1021 8 13 0.00 0.00
11:53 am 11:53 Cloudy 42 5.6 37 2.8 82 82 NW 8 13 30.14 1021 10 16 0.00 0.00
12:04 pm 12:04 Mostly Cloudy 43 6 36 2 76 76 NW 6 9 30.18 1022 10 16 0.00 0.00
12:53 pm 12:53 Cloudy 43 6.1 36 2.2 76 76 NW 9 15 30.11 1020 10 16 0.00 0.00
1:53 pm 13:53 Cloudy 43 6.1 35 1.7 74 74 WNW 9 15 30.10 1019 10 16 0.00 0.00
2:53 pm 14:53 Cloudy 45 7.2 35 1.7 68 68 N 6 9 30.07 1018 10 16 0.00 0.00
3:53 pm 15:53 Cloudy 46 7.8 35 1.7 66 66 NNW 6 9 30.07 1018 10 16 0.00 0.00
4:53 pm 16:53 Cloudy 44 6.7 34 1.1 68 68 WNW 7 11 30.07 1018 10 16 0.00 0.00
5:53 pm 17:53 Cloudy 43 6.1 34 1.1 71 71 NW 7 11 30.07 1018 10 16 0.00 0.00
6:53 pm 18:53 Cloudy 42 5.6 34 1.1 73 73 NW 9 15 30.10 1019 10 16 0.00 0.00
7:53 pm 19:53 Cloudy 41 5 33 0.6 73 73 Calm 30.10 1019 10 16 0.00 0.00
8:53 pm 20:53 Mostly Cloudy 40 4.4 33 0.6 77 77 N 5 7 30.10 1019 10 16 0.00 0.00
9:06 pm 21:06 Mostly Cloudy 41 5 34 1 76 76 Calm 30.12 1020 10 16 0.00 0.00
9:53 pm 21:53 Cloudy 40 4.4 33 0.6 77 77 NNW 3 6 30.10 1019 10 16 0.00 0.00
10:19 pm 22:19 Partly Cloudy 40 4.4 32 0 73 73 Calm 30.12 1020 10 16 0.00 0.00
10:53 pm 22:53 Mostly Clear 39 3.9 32 0 76 76 Calm 30.09 1019 10 16 0.00 0.00
11:35 pm 23:35 Mostly Cloudy 39 3.9 32 0 76 76 Calm 30.12 1020 10 16 0.00 0.00
11:53 pm 23:53 Cloudy 39 3.9 32 0 76 76 Calm 30.09 1019 10 16 0.00 0.00

Powered by AerisWeather